Simultaneous Nadir Overpasses (SNOs) Predictions

Prediction of SNOs between NOAA-20 and METOP-B Satellite Orbit:

Table of predicted SNOs for the next 14.0 days since TLE Epoch: 10/30/2019
Index Date (NOAA-20) Time (NOAA-20) Lat,Lon (NOAA-20) SZA (NOAA-20 ) Date (METOP-B) Time (METOP-B) Lat,Lon (METOP-B) SZA (METOP-B ) Distance(km) Time Diff (sec)
1 11/13/2019 01:34:57 73.46, 146.46 91.29 11/13/2019 01:36:03 73.44, 149.32 91.21 90.70 66
2 11/13/2019 02:25:40 -73.40, -46.09 88.77 11/13/2019 02:26:47 -73.34, -43.57 88.88 80.48 67
3 11/13/2019 03:16:21 73.16, 121.75 91.00 11/13/2019 03:17:31 73.12, 123.27 90.91 49.34 70
4 11/13/2019 04:07:04 -73.11, -70.81 89.06 11/13/2019 04:08:15 -73.02, -69.62 89.18 39.95 71
5 11/13/2019 04:57:45 72.87, 97.02 90.70 11/13/2019 04:58:58 72.85, 97.35 90.67 11.17 73
6 11/13/2019 05:48:28 -72.81, -95.55 89.35 11/13/2019 05:49:41 -72.80, -95.42 89.37 4.40 73
7 11/13/2019 06:39:13 72.77, 71.84 90.62 11/13/2019 06:40:21 72.78, 71.86 90.62 1.07 68
8 11/13/2019 07:29:57 -72.76,-120.83 89.38 11/13/2019 07:31:03 -72.78,-120.80 89.37 1.98 66
9 11/13/2019 08:20:43 72.77, 46.46 90.64 11/13/2019 08:21:43 72.76, 46.48 90.62 2.04 60
10 11/13/2019 09:11:27 -72.77,-146.22 89.36 11/13/2019 09:12:25 -72.76,-146.18 89.37 1.42 58
11 11/13/2019 10:02:12 72.73, 21.18 90.62 11/13/2019 10:03:05 72.74, 21.10 90.62 2.71 53
12 11/13/2019 10:52:56 -72.72,-171.50 89.38 11/13/2019 10:53:47 -72.74,-171.56 89.37 3.00 51
13 11/13/2019 11:43:42 72.73, -4.21 90.64 11/13/2019 11:44:27 72.72, -4.28 90.62 2.82 45
14 11/13/2019 12:34:26 -72.73, 163.12 89.36 11/13/2019 12:35:09 -72.72, 163.06 89.37 2.16 43
15 11/13/2019 13:25:12 72.74, -29.59 90.66 11/13/2019 13:25:48 72.75, -29.55 90.67 1.89 36
16 11/13/2019 14:15:56 -72.73, 137.74 89.34 11/13/2019 14:16:30 -72.75, 137.78 89.32 2.77 34
17 11/13/2019 15:06:42 72.74, -54.97 90.69 11/13/2019 15:07:10 72.73, -54.93 90.67 1.99 28
18 11/13/2019 15:57:26 -72.74, 112.35 89.31 11/13/2019 15:57:52 -72.74, 112.40 89.32 1.76 26
19 11/13/2019 16:48:11 72.70, -80.25 90.66 11/13/2019 16:48:32 72.71, -80.31 90.67 2.45 21
20 11/13/2019 17:38:55 -72.69, 87.07 89.34 11/13/2019 17:39:14 -72.72, 87.02 89.32 3.00 19
21 11/13/2019 18:29:41 72.70,-105.64 90.68 11/13/2019 18:29:54 72.69,-105.69 90.67 1.99 13
22 11/13/2019 19:20:25 -72.70, 61.69 89.32 11/13/2019 19:20:36 -72.70, 61.64 89.32 1.42 11




NCC Satellite Simultaneous Nadir Overpasses (SNOs) Prediction Service
